Weather History for Monticello, KY

Change the Weather History Date:

Monday, May 14, 2012

  Actual Average Record
Temperature  
Mean Temperature 61 °F -  
Max Temperature 69 °F 76 °F 89 °F (1962)
Min Temperature 53 °F 51 °F 36 °F (1960)
Degree Days  
Heating Degree Days 4    
Growing Degree Days 11 (Base 50)    
Moisture  
Dew Point 60 °F    
Average Humidity 94    
Maximum Humidity 100    
Minimum Humidity 76    
Precipitation  
Precipitation 0.00 in - - ()
Sea Level Pressure  
Sea Level Pressure 30.03 in    
Wind  
Wind Speed 3 mph (North)    
Max Wind Speed 12 mph    
Max Gust Speed -    
Visibility 7 miles    
Events Fog , Rain    
Averages and records for this station are not official NWS values.
T = Trace of Precipitation, MM = Missing Value Source: NWS Daily Summary

Daily Weather History Graph

Daily Weather History Graph

Search for Another Location

Airport:

Trip Planner

Search our weather history database for the weather conditions in past years. The results will help you decide how hot, cold, wet, or windy it might be!

Date:

Astronomy

May. 14, 2012 Rise Set
Actual Time 5:32 AM CDT 7:39 PM CDT
Civil Twilight 5:03 AM CDT 8:08 PM CDT
Nautical Twilight 4:27 AM CDT 8:44 PM CDT
Astronomical Twilight 3:49 AM CDT 9:22 PM CDT
Moon 1:57 AM CDT (5/14) 2:07 PM CDT (5/14)
Length of Visible Light 15h 05m
Length of Day
14h 07m
Waning Crescent, 32% of the Moon is Illuminated
May 14
Waning Crescent
May 20
New
May 28
First Quarter
Jun 4
Full
Jun 11
Last Quarter

Hourly Weather History & Observations

Time (CDT) Temp. Dew Point Humidity Pressure Visibility Wind Dir Wind Speed Gust Speed Precip Events Conditions
12:05 AM 60.8 °F 60.8 °F 100% 30.04 in 4.0 mi Calm Calm - 0.00 in Rain Light Rain
12:56 AM 61.0 °F 61.0 °F 100% 30.03 in 3.0 mi Calm Calm - 0.00 in Rain Light Rain
1:11 AM 60.8 °F 60.8 °F 100% 30.02 in 5.0 mi Calm Calm - 0.00 in   Overcast
1:23 AM 60.8 °F 60.8 °F 100% 30.01 in 8.0 mi Calm Calm - 0.00 in   Overcast
1:31 AM 60.8 °F 60.8 °F 100% 30.00 in 9.0 mi Calm Calm - 0.00 in   Overcast
1:56 AM 61.0 °F 61.0 °F 100% 30.01 in 10.0 mi Calm Calm - 0.00 in   Overcast
2:56 AM 61.0 °F 61.0 °F 100% 29.98 in 10.0 mi NE 6.9 mph - N/A   Overcast
3:56 AM 61.9 °F 61.9 °F 100% 30.00 in 3.0 mi Calm Calm - 0.00 in Rain Light Rain
4:04 AM 60.8 °F 60.8 °F 100% 30.00 in 2.0 mi Calm Calm - 0.00 in Rain Light Rain
4:19 AM 60.8 °F 60.8 °F 100% 30.00 in 3.0 mi Calm Calm - 0.00 in   Overcast
4:27 AM 60.8 °F 60.8 °F 100% 30.00 in 2.5 mi Calm Calm - 0.00 in   Overcast
4:35 AM 60.8 °F 60.8 °F 100% 29.99 in 3.0 mi Calm Calm - 0.00 in   Overcast
4:56 AM 61.0 °F 61.0 °F 100% 30.00 in 10.0 mi Calm Calm - 0.00 in   Overcast
6:14 AM 60.8 °F 60.8 °F 100% 30.01 in 9.0 mi Calm Calm - N/A   Overcast
6:28 AM 62.6 °F 62.6 °F 100% 30.01 in 9.0 mi North 5.8 mph - N/A   Overcast
6:56 AM 61.0 °F 61.0 °F 100% 30.02 in 6.0 mi North 6.9 mph - N/A   Overcast
7:38 AM 62.6 °F 62.6 °F 100% 30.02 in 10.0 mi North 4.6 mph - N/A   Overcast
7:56 AM 61.9 °F 61.9 °F 100% 30.03 in 10.0 mi NNE 5.8 mph - N/A   Overcast
8:36 AM 62.6 °F 62.6 °F 100% 30.03 in 10.0 mi NNE 6.9 mph - N/A   Overcast
8:56 AM 64.9 °F 63.9 °F 96% 30.03 in 10.0 mi Calm Calm - N/A   Mostly Cloudy
9:11 AM 64.4 °F 62.6 °F 94% 30.03 in 10.0 mi NNE 8.1 mph - N/A   Mostly Cloudy
9:21 AM 64.4 °F 62.6 °F 94% 30.03 in 10.0 mi NNE 6.9 mph - N/A   Overcast
9:33 AM 64.4 °F 62.6 °F 94% 30.03 in 10.0 mi NNE 8.1 mph - N/A   Overcast
9:56 AM 64.9 °F 61.9 °F 90% 30.04 in 10.0 mi NNE 6.9 mph - N/A   Overcast
10:38 AM 66.2 °F 62.6 °F 88% 30.04 in 10.0 mi North 6.9 mph - N/A   Overcast
10:46 AM 66.2 °F 62.6 °F 88% 30.04 in 10.0 mi North 5.8 mph - N/A   Overcast
10:56 AM 65.8 °F 63.0 °F 90% 30.04 in 10.0 mi North 4.6 mph - N/A   Overcast
11:12 AM 68.0 °F 62.6 °F 83% 30.04 in 10.0 mi Calm Calm - N/A   Mostly Cloudy
11:46 AM 66.2 °F 62.6 °F 88% 30.03 in 10.0 mi North 9.2 mph - N/A   Overcast
11:56 AM 66.9 °F 63.0 °F 87% 30.03 in 10.0 mi North 9.2 mph - N/A   Overcast
12:38 PM 68.0 °F 62.6 °F 83% 30.02 in 10.0 mi North 9.2 mph - N/A   Mostly Cloudy
12:56 PM 68.0 °F 61.9 °F 81% 30.03 in 10.0 mi North 8.1 mph - N/A   Mostly Cloudy
1:07 PM 68.0 °F 62.6 °F 83% 30.02 in 10.0 mi North 8.1 mph - N/A   Overcast
1:38 PM 66.2 °F 60.8 °F 83% 30.03 in 10.0 mi North 9.2 mph - N/A   Overcast
1:56 PM 66.9 °F 61.0 °F 81% 30.03 in 10.0 mi North 9.2 mph - N/A   Overcast
2:06 PM 66.2 °F 60.8 °F 83% 30.03 in 10.0 mi North 6.9 mph - N/A   Overcast
2:56 PM 66.9 °F 61.9 °F 84% 30.03 in 10.0 mi North 6.9 mph - N/A   Overcast
3:56 PM 68.9 °F 61.0 °F 76% 30.02 in 10.0 mi North 9.2 mph - N/A   Overcast
4:06 PM 69.8 °F 62.6 °F 78% 30.01 in 10.0 mi North 11.5 mph - N/A   Overcast
4:56 PM 68.9 °F 61.0 °F 76% 30.02 in 10.0 mi North 9.2 mph - N/A   Mostly Cloudy
5:56 PM 66.9 °F 61.9 °F 84% 30.01 in 10.0 mi North 10.4 mph - N/A   Mostly Cloudy
6:56 PM 65.8 °F 59.9 °F 81% 30.01 in 10.0 mi NNE 8.1 mph - N/A   Partly Cloudy
7:56 PM 61.0 °F 59.9 °F 96% 30.03 in 9.0 mi Calm Calm - N/A   Clear
8:56 PM 59.0 °F 59.0 °F 100% 30.04 in 8.0 mi Calm Calm - N/A   Clear
9:56 PM 56.8 °F 56.8 °F 100% 30.05 in 4.0 mi Calm Calm - N/A   Clear
10:05 PM 57.2 °F 57.2 °F 100% 30.04 in 1.0 mi Calm Calm - N/A   Clear
10:07 PM 55.4 °F 55.4 °F 100% 30.04 in 0.5 mi Calm Calm - N/A Fog Fog
10:16 PM 55.4 °F 55.4 °F 100% 30.05 in 1.2 mi Calm Calm - N/A   Clear
10:22 PM 55.4 °F 55.4 °F 100% 30.05 in 3.0 mi Calm Calm - N/A   Clear
10:39 PM 55.4 °F 55.4 °F 100% 30.05 in 2.0 mi Calm Calm - N/A   Clear
11:03 PM 55.4 °F 55.4 °F 100% 30.05 in 1.2 mi Calm Calm - N/A   Clear
11:11 PM 55.4 °F 55.4 °F 100% 30.05 in 0.8 mi Calm Calm - N/A   Clear
11:14 PM 55.4 °F 55.4 °F 100% 30.05 in 0.2 mi Calm Calm - N/A Fog Fog
11:17 PM 55.4 °F 55.4 °F 100% 30.05 in 0.2 mi Calm Calm - N/A Fog Fog
11:32 PM 53.6 °F 53.6 °F 100% 30.05 in 0.2 mi Calm Calm - N/A Fog Fog
11:41 PM 53.6 °F 53.6 °F 100% 30.05 in 0.2 mi Calm Calm - N/A Fog Fog
11:56 PM 54.0 °F 54.0 °F 100% 30.05 in 0.2 mi Calm Calm - N/A Fog Fog